When you browse on this site, cookies collect data to enhance your experience and personalize the content and advertising you see.
Visit our Privacy Policy to learn more. By continuing to use the site, you agree to this use of cookies and data.
  • în România
  • Lista ţărilor
  • Pe 7 zile
  • Temperatura apei
  • Hartă satelitară
  • Meteo pe hartă
  • Widget-uri
  • user-avatar
    Intrare

    Meteo pe oră la London

    Astăzi, 16 Iunie, Duminică

    Timp Temperatura Precipitaţii Vânt Presiune Umiditate
    00:00 +11°C° 0 mm 3 m/s 760 mmHg 82%
    01:00 +11°C° 0 mm 3 m/s 760 mmHg 84%
    02:00 +10°C° 0 mm 2 m/s 760 mmHg 85%
    03:00 +10°C° 0 mm 2 m/s 760 mmHg 87%
    04:00 +11°C° 0 mm 3 m/s 760 mmHg 87%
    05:00 +12°C° 0 mm 3 m/s 760 mmHg 87%
    06:00 +13°C° 0 mm 4 m/s 760 mmHg 87%
    07:00 +14°C° 0 mm 4 m/s 760 mmHg 81%
    08:00 +16°C° 0 mm 5 m/s 761 mmHg 76%
    09:00 +17°C° 0 mm 5 m/s 761 mmHg 70%
    10:00 +17°C° 0.3 mm 6 m/s 761 mmHg 70%
    11:00 +18°C° 0.3 mm 7 m/s 761 mmHg 69%
    12:00 +20°C° 0.3 mm 7 m/s 761 mmHg 69%
    13:00 +20°C° 0.3 mm 7 m/s 761 mmHg 67%
    14:00 +20°C° 0.3 mm 7 m/s 761 mmHg 66%
    15:00 +20°C° 0.3 mm 7 m/s 761 mmHg 64%
    16:00 +18°C° 0 mm 7 m/s 761 mmHg 65%
    17:00 +19°C° 0 mm 6 m/s 761 mmHg 66%
    18:00 +19°C° 0 mm 6 m/s 761 mmHg 67%
    19:00 +17°C° 0 mm 5 m/s 761 mmHg 71%
    20:00 +15°C° 0 mm 4 m/s 762 mmHg 75%
    21:00 +14°C° 0 mm 4 m/s 762 mmHg 80%
    22:00 +14°C° 0 mm 4 m/s 762 mmHg 81%
    23:00 +13°C° 0 mm 4 m/s 762 mmHg 82%

    Mâine, 17 Iunie, Luni

    Timp Temperatura Precipitaţii Vânt Presiune Umiditate
    00:00 +13°C° 0 mm 4 m/s 762 mmHg 83%
    01:00 +12°C° 0 mm 4 m/s 762 mmHg 83%
    02:00 +12°C° 0 mm 3 m/s 762 mmHg 84%
    03:00 +12°C° 0 mm 3 m/s 762 mmHg 84%
    04:00 +12°C° 0 mm 3 m/s 762 mmHg 80%
    05:00 +13°C° 0 mm 4 m/s 762 mmHg 77%
    06:00 +14°C° 0 mm 4 m/s 762 mmHg 73%
    07:00 +14°C° 0 mm 4 m/s 762 mmHg 71%
    08:00 +15°C° 0 mm 4 m/s 762 mmHg 69%
    09:00 +16°C° 0 mm 5 m/s 762 mmHg 67%
    10:00 +17°C° 0 mm 5 m/s 762 mmHg 66%
    11:00 +17°C° 0 mm 5 m/s 762 mmHg 65%
    12:00 +19°C° 0 mm 5 m/s 762 mmHg 63%
    13:00 +19°C° 0 mm 5 m/s 762 mmHg 63%
    14:00 +19°C° 0 mm 5 m/s 761 mmHg 63%
    15:00 +19°C° 0 mm 5 m/s 761 mmHg 63%
    16:00 +19°C° 0 mm 5 m/s 761 mmHg 65%
    17:00 +18°C° 0 mm 4 m/s 761 mmHg 67%
    18:00 +18°C° 0 mm 4 m/s 761 mmHg 68%
    19:00 +17°C° 0 mm 4 m/s 761 mmHg 72%
    20:00 +16°C° 0 mm 3 m/s 761 mmHg 75%
    21:00 +14°C° 0 mm 3 m/s 761 mmHg 78%
    22:00 +13°C° 0 mm 3 m/s 761 mmHg 79%
    23:00 +14°C° 0 mm 2 m/s 761 mmHg 80%

    Poimâine, 18 Iunie, Marţi

    Timp Temperatura Precipitaţii Vânt Presiune Umiditate
    00:00 +13°C° 0 mm 2 m/s 761 mmHg 81%
    01:00 +13°C° 0 mm 2 m/s 761 mmHg 82%
    02:00 +12°C° 0 mm 2 m/s 761 mmHg 83%
    03:00 +12°C° 0 mm 1 m/s 761 mmHg 83%
    04:00 +13°C° 0 mm 1 m/s 761 mmHg 81%
    05:00 +14°C° 0 mm 1 m/s 761 mmHg 80%
    06:00 +14°C° 0 mm 1 m/s 761 mmHg 78%
    07:00 +16°C° 0 mm 1 m/s 761 mmHg 72%
    08:00 +18°C° 0 mm 1 m/s 760 mmHg 66%
    09:00 +19°C° 0 mm 2 m/s 760 mmHg 60%
    10:00 +20°C° 0 mm 2 m/s 760 mmHg 59%
    11:00 +21°C° 0 mm 2 m/s 760 mmHg 59%
    12:00 +23°C° 0 mm 2 m/s 759 mmHg 58%
    13:00 +23°C° 0.6 mm 2 m/s 759 mmHg 60%
    14:00 +23°C° 0.6 mm 2 m/s 759 mmHg 62%
    15:00 +23°C° 0.6 mm 2 m/s 758 mmHg 65%
    16:00 +21°C° 1 mm 2 m/s 758 mmHg 70%
    17:00 +20°C° 1 mm 3 m/s 758 mmHg 75%
    18:00 +19°C° 1 mm 3 m/s 758 mmHg 80%
    19:00 +18°C° 0.3 mm 3 m/s 757 mmHg 82%
    20:00 +18°C° 0.3 mm 3 m/s 757 mmHg 84%
    21:00 +17°C° 0.3 mm 3 m/s 757 mmHg 86%
    22:00 +17°C° 0 mm 2 m/s 757 mmHg 88%
    23:00 +16°C° 0 mm 2 m/s 757 mmHg 90%

    19 Iunie, Miercuri

    Timp Temperatura Precipitaţii Vânt Presiune Umiditate
    00:00 +16°C° 0 mm 1 m/s 756 mmHg 92%
    01:00 +16°C° 0 mm 1 m/s 756 mmHg 92%
    02:00 +15°C° 0 mm 1 m/s 756 mmHg 92%
    03:00 +14°C° 0 mm 0 m/s 755 mmHg 93%
    04:00 +15°C° 0.1 mm 0 m/s 755 mmHg 92%
    05:00 +16°C° 0.1 mm 1 m/s 754 mmHg 92%
    06:00 +16°C° 0.1 mm 1 m/s 754 mmHg 91%
    07:00 +19°C° 0.1 mm 1 m/s 754 mmHg 87%
    08:00 +19°C° 0.1 mm 2 m/s 754 mmHg 83%
    09:00 +20°C° 0.1 mm 2 m/s 754 mmHg 80%
    10:00 +20°C° 0.3 mm 2 m/s 753 mmHg 80%
    11:00 +20°C° 0.3 mm 3 m/s 753 mmHg 80%
    12:00 +21°C° 0.3 mm 3 m/s 753 mmHg 80%
    13:00 +21°C° 1.5 mm 3 m/s 753 mmHg 78%
    14:00 +21°C° 1.5 mm 3 m/s 752 mmHg 76%
    15:00 +21°C° 1.5 mm 4 m/s 752 mmHg 74%
    16:00 +21°C° 0.7 mm 4 m/s 752 mmHg 75%
    17:00 +21°C° 0.7 mm 4 m/s 752 mmHg 76%
    18:00 +20°C° 0.7 mm 4 m/s 752 mmHg 76%
    19:00 +19°C° 0.2 mm 4 m/s 753 mmHg 80%
    20:00 +18°C° 0.2 mm 4 m/s 753 mmHg 84%
    21:00 +17°C° 0.2 mm 4 m/s 754 mmHg 87%
    22:00 +15°C° 0 mm 4 m/s 754 mmHg 87%
    23:00 +14°C° 0 mm 4 m/s 754 mmHg 87%

    20 Iunie, Joi

    Timp Temperatura Precipitaţii Vânt Presiune Umiditate
    00:00 +14°C° 0 mm 4 m/s 755 mmHg 87%
    01:00 +13°C° 0 mm 4 m/s 755 mmHg 86%
    02:00 +12°C° 0 mm 3 m/s 755 mmHg 84%
    03:00 +12°C° 0 mm 3 m/s 756 mmHg 83%
    04:00 +12°C° 0 mm 3 m/s 756 mmHg 82%
    05:00 +12°C° 0 mm 3 m/s 756 mmHg 81%
    06:00 +13°C° 0 mm 3 m/s 757 mmHg 80%
    07:00 +14°C° 0 mm 3 m/s 757 mmHg 73%
    08:00 +16°C° 0 mm 3 m/s 758 mmHg 67%
    09:00 +18°C° 0 mm 3 m/s 758 mmHg 61%
    10:00 +19°C° 0.1 mm 3 m/s 758 mmHg 58%
    11:00 +20°C° 0.1 mm 3 m/s 758 mmHg 56%
    12:00 +20°C° 0.1 mm 3 m/s 758 mmHg 53%
    13:00 +20°C° 0.3 mm 3 m/s 758 mmHg 57%
    14:00 +20°C° 0.3 mm 3 m/s 758 mmHg 60%
    15:00 +19°C° 0.3 mm 3 m/s 758 mmHg 64%
    16:00 +18°C° 0.3 mm 3 m/s 758 mmHg 66%
    17:00 +18°C° 0.3 mm 3 m/s 758 mmHg 68%
    18:00 +17°C° 0.3 mm 3 m/s 758 mmHg 71%
    19:00 +17°C° 0 mm 3 m/s 759 mmHg 72%
    20:00 +16°C° 0 mm 2 m/s 759 mmHg 74%
    21:00 +15°C° 0 mm 2 m/s 759 mmHg 76%
    22:00 +14°C° 0 mm 2 m/s 759 mmHg 76%
    23:00 +14°C° 0 mm 2 m/s 759 mmHg 77%

    21 Iunie, Vineri

    Timp Temperatura Precipitaţii Vânt Presiune Umiditate
    00:00 +13°C° 0 mm 2 m/s 760 mmHg 78%
    01:00 +13°C° 0 mm 2 m/s 760 mmHg 78%
    02:00 +13°C° 0 mm 2 m/s 760 mmHg 78%
    03:00 +13°C° 0 mm 2 m/s 760 mmHg 78%
    04:00 +13°C° 0 mm 2 m/s 760 mmHg 77%
    05:00 +13°C° 0 mm 2 m/s 760 mmHg 77%
    06:00 +13°C° 0 mm 2 m/s 760 mmHg 77%
    07:00 +14°C° 0 mm 3 m/s 761 mmHg 71%
    08:00 +16°C° 0 mm 3 m/s 761 mmHg 65%
    09:00 +17°C° 0 mm 4 m/s 761 mmHg 59%
    10:00 +18°C° 0.2 mm 4 m/s 761 mmHg 57%
    11:00 +19°C° 0.2 mm 4 m/s 761 mmHg 55%
    12:00 +20°C° 0.2 mm 4 m/s 761 mmHg 53%
    13:00 +20°C° 0.3 mm 4 m/s 761 mmHg 53%
    14:00 +20°C° 0.3 mm 5 m/s 761 mmHg 54%
    15:00 +20°C° 0.3 mm 5 m/s 761 mmHg 54%
    16:00 +20°C° 0.2 mm 4 m/s 761 mmHg 57%
    17:00 +19°C° 0.2 mm 4 m/s 761 mmHg 60%
    18:00 +19°C° 0.2 mm 4 m/s 761 mmHg 63%
    19:00 +18°C° 0 mm 3 m/s 762 mmHg 67%
    20:00 +16°C° 0 mm 3 m/s 762 mmHg 71%
    21:00 +15°C° 0 mm 2 m/s 762 mmHg 75%
    22:00 +15°C° 0 mm 2 m/s 763 mmHg 76%
    23:00 +14°C° 0 mm 2 m/s 763 mmHg 78%
    Arată mai mult